Tracking 19706 objects as of 16-Jun-2019
HD Live streaming from Space Station
objects crossing your sky now

COSMOS 2498

Track COSMOS 2498 now!
10-day predictions
COSMOS 2498 is classified as:


NORAD ID: 39763
Int'l Code: 2014-028C
Perigee: 1,485.9 km
Apogee: 1,517.3 km
Inclination: 82.4 °
Period: 115.9 minutes
Semi major axis: 7872 km
RCS: Unknown
Launch date: May 23, 2014
Source: Commonwealth of Independent States (former USSR) (CIS)
Launch site: PLESETSK MISSILE AND SPACE COMPLEX (PKMTR)

COSMOS 2498 is part of the Russian military's Rodnik, or Strela 3M, system designed to relay messages between users posted in remote locations.
aabbcc
Your satellite tracking list
Your tracking list is empty




NASA's NSSDC Master Catalog

Two Line Element Set (TLE):
1 39763U 14028C   19167.41200490 -.00000018  00000-0 -19835-3 0  9997
2 39763  82.4458 270.9399 0019955 242.9403 116.9640 12.42879208229848
Source of the keplerian elements: AFSPC